Wetterdaten: Mittwoch, 24.02.2010
Datum Zeit Temp. A. Feuchte A. Luftdruck Regen Wind Richtung Richtung Sonnenschein UV Solar Windben
24.02.2010 00:00 2,1 C 91 % 996,3 hPa 0,0 mm 8,1 km/h (2 Bft) O-SO 107 0 min 0 UV-I 0 W/m 19,3 km/h (3 Bft)
24.02.2010 00:10 2,1 C 91 % 996,3 hPa 0,0 mm 6,4 km/h (2 Bft) O 90 0 min 0 UV-I 0 W/m 20,9 km/h (4 Bft)
24.02.2010 00:20 2,1 C 91 % 996,3 hPa 0,0 mm 8,0 km/h (2 Bft) O-SO 112 0 min 0 UV-I 0 W/m 20,9 km/h (4 Bft)
24.02.2010 00:30 2,1 C 91 % 996,3 hPa 0,0 mm 8,0 km/h (2 Bft) O 90 0 min 0 UV-I 0 W/m 24,1 km/h (4 Bft)
24.02.2010 00:40 2,1 C 92 % 996,2 hPa 0,3 mm 8,0 km/h (2 Bft) O 90 0 min 0 UV-I 0 W/m 25,7 km/h (4 Bft)
24.02.2010 00:50 2,1 C 92 % 996,3 hPa 0,0 mm 8,0 km/h (2 Bft) O-SO 112 0 min 0 UV-I 0 W/m 19,3 km/h (3 Bft)
24.02.2010 01:00 2,1 C 92 % 996,4 hPa 0,0 mm 6,4 km/h (2 Bft) O-SO 112 0 min 0 UV-I 0 W/m 17,7 km/h (3 Bft)
24.02.2010 01:10 2,1 C 92 % 996,5 hPa 0,0 mm 4,8 km/h (1 Bft) O-SO 112 0 min 0 UV-I 0 W/m 16,1 km/h (3 Bft)
24.02.2010 01:20 2,1 C 92 % 996,5 hPa 0,3 mm 8,0 km/h (2 Bft) O 90 0 min 0 UV-I 0 W/m 16,1 km/h (3 Bft)
24.02.2010 01:30 2,2 C 92 % 996,5 hPa 0,0 mm 6,4 km/h (2 Bft) O-SO 112 0 min 0 UV-I 0 W/m 16,1 km/h (3 Bft)
24.02.2010 01:40 2,2 C 92 % 996,5 hPa 0,0 mm 6,4 km/h (2 Bft) O-SO 112 0 min 0 UV-I 0 W/m 20,9 km/h (4 Bft)
24.02.2010 01:50 2,2 C 92 % 996,5 hPa 0,0 mm 6,4 km/h (2 Bft) O-SO 112 0 min 0 UV-I 0 W/m 16,1 km/h (3 Bft)
24.02.2010 02:00 2,2 C 92 % 996,5 hPa 0,0 mm 6,4 km/h (2 Bft) O-SO 112 0 min 0 UV-I 0 W/m 20,9 km/h (4 Bft)
24.02.2010 02:10 2,2 C 92 % 996,5 hPa 0,0 mm 6,4 km/h (2 Bft) O-SO 112 0 min 0 UV-I 0 W/m 16,1 km/h (3 Bft)
24.02.2010 02:20 2,2 C 92 % 996,5 hPa 0,0 mm 4,8 km/h (1 Bft) O-SO 112 0 min 0 UV-I 0 W/m 14,5 km/h (3 Bft)
24.02.2010 02:30 2,2 C 92 % 996,5 hPa 0,0 mm 4,8 km/h (1 Bft) O 90 0 min 0 UV-I 0 W/m 11,3 km/h (2 Bft)
24.02.2010 02:40 2,2 C 92 % 996,5 hPa 0,0 mm 4,8 km/h (1 Bft) O-SO 112 0 min 0 UV-I 0 W/m 16,1 km/h (3 Bft)
24.02.2010 02:50 2,2 C 92 % 996,5 hPa 0,3 mm 4,8 km/h (1 Bft) O-SO 112 0 min 0 UV-I 0 W/m 16,1 km/h (3 Bft)
24.02.2010 03:00 2,3 C 92 % 996,5 hPa 0,0 mm 4,8 km/h (1 Bft) O-SO 112 0 min 0 UV-I 0 W/m 11,3 km/h (2 Bft)
24.02.2010 03:10 2,3 C 92 % 996,3 hPa 0,3 mm 6,4 km/h (2 Bft) O-SO 112 0 min 0 UV-I 0 W/m 14,5 km/h (3 Bft)
24.02.2010 03:20 2,4 C 92 % 996,4 hPa 0,0 mm 4,8 km/h (1 Bft) O-SO 112 0 min 0 UV-I 0 W/m 14,5 km/h (3 Bft)
24.02.2010 03:30 2,4 C 92 % 996,3 hPa 0,0 mm 3,2 km/h (1 Bft) O-SO 112 0 min 0 UV-I 0 W/m 9,7 km/h (2 Bft)
24.02.2010 03:40 2,6 C 92 % 996,2 hPa 0,0 mm 3,2 km/h (1 Bft) O-SO 112 0 min 0 UV-I 0 W/m 8,0 km/h (2 Bft)
24.02.2010 03:50 2,6 C 92 % 996,2 hPa 0,0 mm 3,2 km/h (1 Bft) O-SO 112 0 min 0 UV-I 0 W/m 8,0 km/h (2 Bft)
24.02.2010 04:00 2,7 C 92 % 996,2 hPa 0,0 mm 1,6 km/h (1 Bft) O-SO 112 0 min 0 UV-I 0 W/m 8,0 km/h (2 Bft)
24.02.2010 04:10 2,8 C 92 % 996,2 hPa 0,0 mm 1,6 km/h (1 Bft) SO 135 0 min 0 UV-I 0 W/m 6,4 km/h (2 Bft)
24.02.2010 04:20 2,8 C 92 % 996,2 hPa 0,0 mm 1,6 km/h (1 Bft) O-SO 112 0 min 0 UV-I 0 W/m 4,8 km/h (1 Bft)
24.02.2010 04:30 2,9 C 92 % 996,2 hPa 0,0 mm 1,6 km/h (1 Bft) O-SO 112 0 min 0 UV-I 0 W/m 4,8 km/h (1 Bft)
24.02.2010 04:40 2,9 C 92 % 996,4 hPa 0,0 mm 0,0 km/h (0 Bft) O 90 0 min 0 UV-I 0 W/m 4,8 km/h (1 Bft)
24.02.2010 04:50 3,0 C 92 % 996,3 hPa 0,0 mm 1,6 km/h (1 Bft) SO 135 0 min 0 UV-I 0 W/m 4,8 km/h (1 Bft)
24.02.2010 05:00 3,0 C 92 % 996,3 hPa 0,0 mm 1,6 km/h (1 Bft) O-SO 112 0 min 0 UV-I 0 W/m 6,4 km/h (2 Bft)
24.02.2010 05:10 3,1 C 92 % 996,4 hPa 0,0 mm 1,6 km/h (1 Bft) O-SO 112 0 min 0 UV-I 0 W/m 4,8 km/h (1 Bft)
24.02.2010 05:20 3,1 C 92 % 996,3 hPa 0,0 mm 1,6 km/h (1 Bft) O-SO 112 0 min 0 UV-I 0 W/m 4,8 km/h (1 Bft)
24.02.2010 05:30 3,2 C 92 % 996,3 hPa 0,0 mm 1,6 km/h (1 Bft) O-SO 112 0 min 0 UV-I 0 W/m 6,4 km/h (2 Bft)
24.02.2010 05:40 3,2 C 92 % 996,5 hPa 0,0 mm 0,0 km/h (0 Bft) O 90 0 min 0 UV-I 0 W/m 3,2 km/h (1 Bft)
24.02.2010 05:50 3,2 C 93 % 996,5 hPa 0,0 mm 1,6 km/h (1 Bft) O 90 0 min 0 UV-I 0 W/m 3,2 km/h (1 Bft)
24.02.2010 06:00 3,3 C 93 % 996,5 hPa 0,0 mm 0,0 km/h (0 Bft) O 90 0 min 0 UV-I 0 W/m 3,2 km/h (1 Bft)
24.02.2010 06:10 3,3 C 93 % 996,4 hPa 0,0 mm 1,6 km/h (1 Bft) O 90 0 min 0 UV-I 0 W/m 6,4 km/h (2 Bft)
24.02.2010 06:20 3,3 C 93 % 996,5 hPa 0,0 mm 3,2 km/h (1 Bft) SO 135 0 min 0 UV-I 0 W/m 8,0 km/h (2 Bft)
24.02.2010 06:30 3,3 C 93 % 996,5 hPa 0,0 mm 1,6 km/h (1 Bft) O-SO 112 0 min 0 UV-I 0 W/m 6,4 km/h (2 Bft)
24.02.2010 06:40 3,4 C 93 % 996,4 hPa 0,0 mm 1,6 km/h (1 Bft) O-SO 112 0 min 0 UV-I 0 W/m 4,8 km/h (1 Bft)
24.02.2010 06:50 3,4 C 93 % 996,5 hPa 0,0 mm 1,6 km/h (1 Bft) SO 135 0 min 0 UV-I 0 W/m 8,0 km/h (2 Bft)
24.02.2010 07:00 3,4 C 93 % 996,6 hPa 0,0 mm 1,6 km/h (1 Bft) SO 135 0 min 0 UV-I 0 W/m 4,8 km/h (1 Bft)
24.02.2010 07:10 3,4 C 93 % 996,6 hPa 0,0 mm 0,0 km/h (0 Bft) SO 135 0 min 0 UV-I 0 W/m 3,2 km/h (1 Bft)
24.02.2010 07:20 3,4 C 93 % 996,6 hPa 0,0 mm 0,0 km/h (0 Bft) SO 135 0 min 0 UV-I 0 W/m 4,8 km/h (1 Bft)
24.02.2010 07:30 3,4 C 93 % 996,8 hPa 0,0 mm 0,0 km/h (0 Bft) SO 135 0 min 0 UV-I 0 W/m 3,2 km/h (1 Bft)
24.02.2010 07:40 3,4 C 93 % 996,9 hPa 0,0 mm 0,0 km/h (0 Bft) SO 135 0 min 0 UV-I 0 W/m 1,6 km/h (1 Bft)
24.02.2010 07:50 3,4 C 93 % 997,0 hPa 0,0 mm 0,0 km/h (0 Bft) S 180 0 min 0 UV-I 9 W/m 3,2 km/h (1 Bft)
24.02.2010 08:00 3,6 C 93 % 997,1 hPa 0,0 mm 0,0 km/h (0 Bft) S-SO 161 0 min 0 UV-I 6 W/m 1,6 km/h (1 Bft)
24.02.2010 08:10 3,6 C 93 % 997,1 hPa 0,0 mm 0,0 km/h (0 Bft) SO 135 0 min 0 UV-I 12 W/m 3,2 km/h (1 Bft)
24.02.2010 08:20 3,7 C 93 % 997,2 hPa 0,0 mm 0,0 km/h (0 Bft) SO 135 0 min 0 UV-I 12 W/m 4,8 km/h (1 Bft)
24.02.2010 08:30 3,8 C 93 % 997,3 hPa 0,3 mm 0,0 km/h (0 Bft) SO 135 0 min 0 UV-I 14 W/m 4,8 km/h (1 Bft)
24.02.2010 08:40 4,0 C 93 % 997,2 hPa 0,0 mm 1,6 km/h (1 Bft) SO 135 0 min 0 UV-I 47 W/m 6,4 km/h (2 Bft)
24.02.2010 08:50 4,2 C 93 % 997,2 hPa 0,0 mm 0,0 km/h (0 Bft) SO 135 0 min 0 UV-I 95 W/m 3,2 km/h (1 Bft)
24.02.2010 09:00 4,3 C 93 % 997,3 hPa 0,0 mm 0,0 km/h (0 Bft) S 180 0 min 0 UV-I 118 W/m 4,8 km/h (1 Bft)
24.02.2010 09:10 4,6 C 94 % 997,4 hPa 0,0 mm 0,0 km/h (0 Bft) SO 135 0 min 0 UV-I 49 W/m 3,2 km/h (1 Bft)
24.02.2010 09:20 4,7 C 93 % 997,4 hPa 0,0 mm 0,0 km/h (0 Bft) S-SO 157 0 min 0 UV-I 93 W/m 4,8 km/h (1 Bft)
24.02.2010 09:30 4,9 C 94 % 997,4 hPa 0,0 mm 1,6 km/h (1 Bft) S-SO 157 0 min 1 UV-I 153 W/m 4,8 km/h (1 Bft)
24.02.2010 09:40 5,1 C 94 % 997,5 hPa 0,0 mm 1,6 km/h (1 Bft) SO 135 0 min 1 UV-I 121 W/m 6,4 km/h (2 Bft)
24.02.2010 09:50 5,4 C 94 % 997,5 hPa 0,0 mm 1,6 km/h (1 Bft) S 180 0 min 0 UV-I 83 W/m 4,8 km/h (1 Bft)
24.02.2010 10:00 5,7 C 94 % 997,5 hPa 0,0 mm 0,0 km/h (0 Bft) S-SO 157 0 min 1 UV-I 137 W/m 3,2 km/h (1 Bft)
24.02.2010 10:10 5,8 C 94 % 997,7 hPa 0,0 mm 0,0 km/h (0 Bft) S-SO 157 0 min 1 UV-I 188 W/m 3,2 km/h (1 Bft)
24.02.2010 10:20 6,9 C 94 % 997,7 hPa 0,0 mm 0,0 km/h (0 Bft) S-SW 202 10 min 1 UV-I 330 W/m 4,8 km/h (1 Bft)
24.02.2010 10:30 7,9 C 92 % 997,7 hPa 0,0 mm 0,0 km/h (0 Bft) S 180 10 min 1 UV-I 264 W/m 4,8 km/h (1 Bft)
24.02.2010 10:40 8,2 C 91 % 997,7 hPa 0,0 mm 0,0 km/h (0 Bft) S 180 0 min 1 UV-I 188 W/m 6,4 km/h (2 Bft)
24.02.2010 10:50 8,6 C 89 % 997,7 hPa 0,0 mm 0,0 km/h (0 Bft) S 180 10 min 1 UV-I 246 W/m 4,8 km/h (1 Bft)
24.02.2010 11:00 8,9 C 88 % 997,8 hPa 0,0 mm 0,0 km/h (0 Bft) S-SW 202 0 min 1 UV-I 155 W/m 4,8 km/h (1 Bft)
24.02.2010 11:10 9,1 C 87 % 997,8 hPa 0,0 mm 1,6 km/h (1 Bft) S 180 0 min 1 UV-I 125 W/m 4,8 km/h (1 Bft)
24.02.2010 11:20 9,3 C 86 % 997,7 hPa 0,0 mm 1,6 km/h (1 Bft) SW 225 10 min 1 UV-I 265 W/m 9,7 km/h (2 Bft)
24.02.2010 11:30 9,8 C 83 % 997,8 hPa 0,0 mm 4,8 km/h (1 Bft) SW 225 10 min 1 UV-I 271 W/m 16,1 km/h (3 Bft)
24.02.2010 11:40 10,1 C 82 % 997,8 hPa 0,0 mm 3,2 km/h (1 Bft) W-SW 247 10 min 2 UV-I 350 W/m 12,9 km/h (3 Bft)
24.02.2010 11:50 10,7 C 78 % 997,9 hPa 0,0 mm 4,8 km/h (1 Bft) SW 225 10 min 2 UV-I 476 W/m 17,7 km/h (3 Bft)
24.02.2010 12:00 10,9 C 76 % 997,9 hPa 0,0 mm 6,4 km/h (2 Bft) SW 225 10 min 2 UV-I 728 W/m 19,3 km/h (3 Bft)
24.02.2010 12:10 11,5 C 73 % 997,9 hPa 0,0 mm 4,8 km/h (1 Bft) W-SW 247 10 min 2 UV-I 737 W/m 16,1 km/h (3 Bft)
24.02.2010 12:20 11,6 C 72 % 998,0 hPa 0,0 mm 6,4 km/h (2 Bft) SW 225 10 min 2 UV-I 330 W/m 17,7 km/h (3 Bft)
24.02.2010 12:30 11,1 C 73 % 997,9 hPa 0,0 mm 8,0 km/h (2 Bft) W-SW 247 0 min 2 UV-I 251 W/m 17,7 km/h (3 Bft)
24.02.2010 12:40 11,0 C 72 % 998,0 hPa 0,0 mm 6,4 km/h (2 Bft) SW 225 10 min 2 UV-I 638 W/m 19,3 km/h (3 Bft)
24.02.2010 12:50 11,4 C 71 % 998,1 hPa 0,0 mm 4,8 km/h (1 Bft) S-SW 202 10 min 2 UV-I 675 W/m 20,9 km/h (4 Bft)
24.02.2010 13:00 11,4 C 70 % 998,1 hPa 0,0 mm 6,4 km/h (2 Bft) SW 225 10 min 2 UV-I 304 W/m 20,9 km/h (4 Bft)
24.02.2010 13:10 11,4 C 70 % 998,1 hPa 0,0 mm 8,0 km/h (2 Bft) SW 225 10 min 1 UV-I 380 W/m 20,9 km/h (4 Bft)
24.02.2010 13:20 11,6 C 69 % 998,1 hPa 0,0 mm 6,4 km/h (2 Bft) SW 225 10 min 2 UV-I 434 W/m 20,9 km/h (4 Bft)
24.02.2010 13:30 11,5 C 68 % 998,1 hPa 0,0 mm 8,0 km/h (2 Bft) SW 225 10 min 2 UV-I 647 W/m 19,3 km/h (3 Bft)
24.02.2010 13:40 11,8 C 66 % 998,0 hPa 0,0 mm 11,3 km/h (2 Bft) SW 225 10 min 2 UV-I 684 W/m 25,7 km/h (4 Bft)
24.02.2010 13:50 11,6 C 68 % 998,1 hPa 0,0 mm 6,4 km/h (2 Bft) SW 225 10 min 2 UV-I 596 W/m 19,3 km/h (3 Bft)
24.02.2010 14:00 11,6 C 68 % 998,0 hPa 0,0 mm 6,4 km/h (2 Bft) S-SW 202 10 min 1 UV-I 422 W/m 19,3 km/h (3 Bft)
24.02.2010 14:10 11,6 C 68 % 998,1 hPa 0,0 mm 8,0 km/h (2 Bft) SW 225 10 min 1 UV-I 297 W/m 17,7 km/h (3 Bft)
24.02.2010 14:20 11,4 C 68 % 998,1 hPa 0,0 mm 6,4 km/h (2 Bft) W-SW 247 0 min 1 UV-I 230 W/m 16,1 km/h (3 Bft)
24.02.2010 14:30 11,4 C 67 % 998,2 hPa 0,0 mm 6,4 km/h (2 Bft) W-SW 247 10 min 1 UV-I 230 W/m 20,9 km/h (4 Bft)
24.02.2010 14:40 11,4 C 68 % 998,1 hPa 0,0 mm 4,8 km/h (1 Bft) SW 225 10 min 1 UV-I 336 W/m 16,1 km/h (3 Bft)
24.02.2010 14:50 11,6 C 68 % 998,1 hPa 0,0 mm 4,8 km/h (1 Bft) S-SW 202 10 min 1 UV-I 299 W/m 14,5 km/h (3 Bft)
24.02.2010 15:00 11,4 C 68 % 998,1 hPa 0,0 mm 4,8 km/h (1 Bft) S-SW 202 0 min 1 UV-I 172 W/m 14,5 km/h (3 Bft)
24.02.2010 15:10 11,2 C 69 % 998,2 hPa 0,0 mm 4,8 km/h (1 Bft) S-SW 202 0 min 1 UV-I 171 W/m 16,1 km/h (3 Bft)
24.02.2010 15:20 11,2 C 69 % 998,2 hPa 0,0 mm 4,8 km/h (1 Bft) SW 225 10 min 1 UV-I 290 W/m 16,1 km/h (3 Bft)
24.02.2010 15:30 11,4 C 69 % 998,2 hPa 0,0 mm 3,2 km/h (1 Bft) SW 225 10 min 1 UV-I 302 W/m 11,3 km/h (2 Bft)
24.02.2010 15:40 11,7 C 67 % 998,2 hPa 0,0 mm 3,2 km/h (1 Bft) SW 225 10 min 1 UV-I 345 W/m 11,3 km/h (2 Bft)
24.02.2010 15:50 11,8 C 67 % 998,1 hPa 0,0 mm 4,8 km/h (1 Bft) S-SW 202 10 min 1 UV-I 348 W/m 19,3 km/h (3 Bft)
24.02.2010 16:00 11,8 C 68 % 998,1 hPa 0,0 mm 2,9 km/h (1 Bft) W 267 10 min 1 UV-I 248 W/m 8,0 km/h (2 Bft)
24.02.2010 16:10 11,8 C 67 % 998,1 hPa 0,0 mm 4,8 km/h (1 Bft) S-SW 202 10 min 1 UV-I 250 W/m 16,1 km/h (3 Bft)
24.02.2010 16:20 11,6 C 67 % 998,1 hPa 0,0 mm 3,2 km/h (1 Bft) SW 225 10 min 1 UV-I 227 W/m 9,7 km/h (2 Bft)
24.02.2010 16:30 11,4 C 68 % 998,1 hPa 0,0 mm 3,2 km/h (1 Bft) SW 225 10 min 1 UV-I 155 W/m 14,5 km/h (3 Bft)
24.02.2010 16:40 11,1 C 70 % 998,2 hPa 0,0 mm 3,2 km/h (1 Bft) SW 225 10 min 0 UV-I 98 W/m 9,7 km/h (2 Bft)
24.02.2010 16:50 10,9 C 70 % 998,3 hPa 0,0 mm 1,6 km/h (1 Bft) SW 225 10 min 0 UV-I 137 W/m 8,0 km/h (2 Bft)
24.02.2010 17:00 10,7 C 71 % 998,3 hPa 0,0 mm 3,2 km/h (1 Bft) SW 225 0 min 0 UV-I 60 W/m 9,7 km/h (2 Bft)
24.02.2010 17:10 10,6 C 72 % 998,2 hPa 0,0 mm 1,6 km/h (1 Bft) S-SW 202 0 min 0 UV-I 46 W/m 9,7 km/h (2 Bft)
24.02.2010 17:20 10,4 C 72 % 998,1 hPa 0,0 mm 1,6 km/h (1 Bft) S 180 10 min 0 UV-I 46 W/m 4,8 km/h (1 Bft)
24.02.2010 17:30 10,2 C 72 % 998,2 hPa 0,0 mm 0,0 km/h (0 Bft) S-SW 202 10 min 0 UV-I 30 W/m 6,4 km/h (2 Bft)
24.02.2010 17:40 10,0 C 74 % 998,1 hPa 0,0 mm 1,6 km/h (1 Bft) S-SO 157 10 min 0 UV-I 19 W/m 8,0 km/h (2 Bft)
24.02.2010 17:50 9,2 C 76 % 998,1 hPa 0,0 mm 1,2 km/h (1 Bft) S-SO 150 0 min 0 UV-I 5 W/m 4,8 km/h (1 Bft)
24.02.2010 18:00 8,8 C 77 % 998,1 hPa 0,0 mm 1,1 km/h (1 Bft) S 173 0 min 0 UV-I 0 W/m 6,4 km/h (2 Bft)
24.02.2010 18:10 8,3 C 79 % 998,1 hPa 0,0 mm 1,4 km/h (1 Bft) SO 138 0 min 0 UV-I 0 W/m 8,0 km/h (2 Bft)
24.02.2010 18:20 8,1 C 80 % 998,1 hPa 0,0 mm 0,9 km/h (0 Bft) SO 142 0 min 0 UV-I 0 W/m 4,8 km/h (1 Bft)
24.02.2010 18:30 7,8 C 80 % 998,1 hPa 0,0 mm 0,6 km/h (0 Bft) S-SO 157 0 min 0 UV-I 0 W/m 4,8 km/h (1 Bft)
24.02.2010 18:40 7,7 C 82 % 998,3 hPa 0,0 mm 0,4 km/h (0 Bft) S-SO 150 0 min 0 UV-I 0 W/m 3,2 km/h (1 Bft)
24.02.2010 18:50 7,6 C 82 % 998,4 hPa 0,0 mm 0,1 km/h (0 Bft) S-SO 151 0 min 0 UV-I 0 W/m 1,6 km/h (1 Bft)
24.02.2010 19:00 7,6 C 83 % 998,3 hPa 0,0 mm 0,4 km/h (0 Bft) S-SO 147 0 min 0 UV-I 0 W/m 3,2 km/h (1 Bft)
24.02.2010 19:10 7,6 C 83 % 998,3 hPa 0,0 mm 1,1 km/h (1 Bft) O-SO 120 0 min 0 UV-I 0 W/m 6,4 km/h (2 Bft)
24.02.2010 19:20 7,3 C 83 % 998,3 hPa 0,0 mm 1,1 km/h (1 Bft) O-SO 114 0 min 0 UV-I 0 W/m 4,8 km/h (1 Bft)
24.02.2010 19:30 7,3 C 84 % 998,1 hPa 0,0 mm 2,1 km/h (1 Bft) SO 137 0 min 0 UV-I 0 W/m 9,7 km/h (2 Bft)
24.02.2010 19:40 7,4 C 83 % 998,2 hPa 0,0 mm 1,9 km/h (1 Bft) SO 140 0 min 0 UV-I 0 W/m 8,0 km/h (2 Bft)
24.02.2010 19:50 7,4 C 83 % 998,2 hPa 0,0 mm 1,5 km/h (1 Bft) W-SW 242 0 min 0 UV-I 0 W/m 11,3 km/h (2 Bft)
24.02.2010 20:00 7,3 C 83 % 998,2 hPa 0,0 mm 0,8 km/h (0 Bft) SO 138 0 min 0 UV-I 0 W/m 6,4 km/h (2 Bft)
24.02.2010 20:10 7,3 C 84 % 998,1 hPa 0,0 mm 1,2 km/h (1 Bft) S-SO 152 0 min 0 UV-I 0 W/m 6,4 km/h (2 Bft)
24.02.2010 20:20 7,2 C 84 % 998,0 hPa 0,0 mm 1,6 km/h (1 Bft) O-SO 108 0 min 0 UV-I 0 W/m 8,0 km/h (2 Bft)
24.02.2010 20:30 7,4 C 85 % 997,9 hPa 0,0 mm 3,0 km/h (1 Bft) S-SO 148 0 min 0 UV-I 0 W/m 8,0 km/h (2 Bft)
24.02.2010 20:40 7,6 C 85 % 997,7 hPa 0,0 mm 3,8 km/h (1 Bft) O 91 0 min 0 UV-I 0 W/m 9,7 km/h (2 Bft)
24.02.2010 20:50 7,8 C 84 % 997,6 hPa 0,0 mm 4,3 km/h (1 Bft) SO 135 0 min 0 UV-I 0 W/m 17,7 km/h (3 Bft)
24.02.2010 21:00 7,9 C 84 % 997,6 hPa 0,0 mm 3,9 km/h (1 Bft) SO 135 0 min 0 UV-I 0 W/m 16,1 km/h (3 Bft)
24.02.2010 21:10 8,0 C 84 % 997,5 hPa 0,0 mm 4,1 km/h (1 Bft) S 182 0 min 0 UV-I 0 W/m 12,9 km/h (3 Bft)
24.02.2010 21:20 7,9 C 84 % 997,6 hPa 0,0 mm 3,8 km/h (1 Bft) S-SO 161 0 min 0 UV-I 0 W/m 14,5 km/h (3 Bft)
24.02.2010 21:30 7,9 C 84 % 997,5 hPa 0,0 mm 3,3 km/h (1 Bft) S-SO 168 0 min 0 UV-I 0 W/m 16,1 km/h (3 Bft)
24.02.2010 21:40 7,9 C 84 % 997,5 hPa 0,0 mm 3,2 km/h (1 Bft) SO 135 0 min 0 UV-I 0 W/m 16,1 km/h (3 Bft)
24.02.2010 21:50 8,0 C 84 % 997,4 hPa 0,0 mm 3,2 km/h (1 Bft) S-SO 157 0 min 0 UV-I 0 W/m 16,1 km/h (3 Bft)
24.02.2010 22:00 8,1 C 84 % 997,5 hPa 0,0 mm 4,8 km/h (1 Bft) S-SO 157 0 min 0 UV-I 0 W/m 16,1 km/h (3 Bft)
24.02.2010 22:10 8,1 C 84 % 997,3 hPa 0,0 mm 3,2 km/h (1 Bft) S-SO 157 0 min 0 UV-I 0 W/m 11,3 km/h (2 Bft)
24.02.2010 22:20 8,2 C 84 % 997,3 hPa 0,0 mm 4,8 km/h (1 Bft) SO 135 0 min 0 UV-I 0 W/m 17,7 km/h (3 Bft)
24.02.2010 22:30 8,2 C 84 % 997,3 hPa 0,0 mm 3,2 km/h (1 Bft) S 180 0 min 0 UV-I 0 W/m 9,7 km/h (2 Bft)
24.02.2010 22:40 8,2 C 84 % 997,2 hPa 0,0 mm 3,2 km/h (1 Bft) S-SO 157 0 min 0 UV-I 0 W/m 19,3 km/h (3 Bft)
24.02.2010 22:50 8,2 C 84 % 997,2 hPa 0,0 mm 6,6 km/h (2 Bft) S 175 0 min 0 UV-I 0 W/m 20,9 km/h (4 Bft)
24.02.2010 23:00 8,3 C 83 % 997,2 hPa 0,0 mm 4,8 km/h (1 Bft) S 172 0 min 0 UV-I 0 W/m 17,7 km/h (3 Bft)
24.02.2010 23:10 8,2 C 83 % 997,3 hPa 0,0 mm 3,2 km/h (1 Bft) S-SO 157 0 min 0 UV-I 0 W/m 16,1 km/h (3 Bft)
24.02.2010 23:20 8,2 C 83 % 997,1 hPa 0,0 mm 3,2 km/h (1 Bft) SO 135 0 min 0 UV-I 0 W/m 9,7 km/h (2 Bft)
24.02.2010 23:30 8,1 C 83 % 997,3 hPa 0,0 mm 1,6 km/h (1 Bft) S 180 0 min 0 UV-I 0 W/m 4,8 km/h (1 Bft)
24.02.2010 23:40 8,0 C 83 % 997,3 hPa 0,0 mm 1,6 km/h (1 Bft) S 180 0 min 0 UV-I 0 W/m 6,4 km/h (2 Bft)
24.02.2010 23:50 8,0 C 83 % 997,2 hPa 0,0 mm 1,6 km/h (1 Bft) O-SO 112 0 min 0 UV-I 0 W/m 6,4 km/h (2 Bft)
_ Min-Zeit 00:10 13:40 00:40 - 04:40 - - - - - 07:40
Minimum _ 2,1 C 66 % 996,2 hPa - 0,0 km/h (0 Bft) - - - - - 1,6 km/h (1 Bft)
_ Max-Zeit 13:40 09:10 18:50 00:40 13:40 - - 10:20 12:40 12:10 00:40
Maximum _ 11,9 C 94 % 998,4 hPa 0,3 mm 11,3 km/h
SW (2 Bft)
- - 10 min 2 UV-I 737 W/m 25,7 km/h
O-SO (4 Bft)
Durchschnitt _ 6,7 C 84 % 997,4 hPa #1,3 mm 3,2 km/h (1 Bft) O-SO - #6:00 h 1 UV-I 245 W/m 11,0 km/h (2 Bft)